^^
Datos históricos de la estación: Murcia-Puente Tocinos
 
Diario Informe para Febrero 22, 2020 Unidades:  Métrico    Inglés   Ambas
Diario Semanal Mensual Anual Configurable
  Actual: Máximo: Mínimo: Media:
Temperatura: 6.1 °C 10.3 °C 6.1 °C 8.3 °C
Punto de rocio: 4.1 °C 7.9 °C 3.8 °C 5.9 °C
Humedad: 87% 87% 80% 85%
Velocidad viento: 8.0km/h 8.0km/h 0.0km/h 4.9km/h
Racha viento: 9.7km/h 14.5km/h - -
VientoSouth - - SSW
Presión: 1030.4 hPa 1030.4 hPa 1029.2 hPa -
Precipitación: 0.0 mm      
Historical Graphs
 
 
Tabla de datos para Febrero 22, 2020
Hora Temperatura Punto de rocio Presión Viento Velocidad viento Racha viento Humedad Intensidad lluvia(por hora) Nubes
00:00 10.3 °C 7.9 °C 1029.5 hPa SSW 8.0 km/h 9.7 km/h 85% 0.0 mm CLR
00:05 10.3 °C 7.9 °C 1029.5 hPa SSW 4.8 km/h 9.7 km/h 85% 0.0 mm CLR
00:10 10.3 °C 7.9 °C 1029.5 hPa SSW 4.8 km/h 8.0 km/h 85% 0.0 mm CLR
00:15 10.3 °C 7.7 °C 1029.5 hPa South 4.8 km/h 8.0 km/h 84% 0.0 mm CLR
00:20 10.3 °C 7.7 °C 1029.5 hPa SSW 4.8 km/h 9.7 km/h 84% 0.0 mm CLR
00:25 10.3 °C 7.7 °C 1029.5 hPa SSW 4.8 km/h 9.7 km/h 84% 0.0 mm CLR
00:30 10.2 °C 7.6 °C 1029.5 hPa SSW 4.8 km/h 9.7 km/h 84% 0.0 mm CLR
00:35 10.2 °C 7.6 °C 1029.5 hPa SSW 4.8 km/h 9.7 km/h 84% 0.0 mm CLR
00:40 10.1 °C 7.6 °C 1029.5 hPa SSW 8.0 km/h 9.7 km/h 84% 0.0 mm CLR
00:45 10.1 °C 7.5 °C 1029.5 hPa SSW 4.8 km/h 9.7 km/h 84% 0.0 mm CLR
00:50 10.1 °C 7.5 °C 1029.5 hPa SSW 4.8 km/h 9.7 km/h 84% 0.0 mm CLR
00:55 10.2 °C 7.6 °C 1029.4 hPa SSW 8.0 km/h 14.5 km/h 84% 0.0 mm CLR
01:00 10.2 °C 7.6 °C 1029.4 hPa SSW 8.0 km/h 12.9 km/h 84% 0.0 mm CLR
01:05 10.2 °C 7.6 °C 1029.4 hPa SW 4.8 km/h 8.0 km/h 84% 0.0 mm CLR
01:10 10.2 °C 7.4 °C 1029.4 hPa SW 4.8 km/h 8.0 km/h 83% 0.0 mm CLR
01:15 10.2 °C 7.4 °C 1029.4 hPa SSW 4.8 km/h 9.7 km/h 83% 0.0 mm CLR
01:20 10.1 °C 7.3 °C 1029.4 hPa SSW 4.8 km/h 9.7 km/h 83% 0.0 mm CLR
01:25 10.0 °C 7.2 °C 1029.5 hPa South 4.8 km/h 8.0 km/h 83% 0.0 mm CLR
01:30 9.9 °C 7.2 °C 1029.5 hPa South 4.8 km/h 8.0 km/h 83% 0.0 mm CLR
01:35 9.8 °C 7.1 °C 1029.5 hPa South 4.8 km/h 8.0 km/h 83% 0.0 mm CLR
01:40 9.7 °C 7.1 °C 1029.5 hPa South 3.2 km/h 8.0 km/h 84% 0.0 mm CLR
01:45 9.7 °C 7.1 °C 1029.5 hPa South 3.2 km/h 8.0 km/h 84% 0.0 mm CLR
01:50 9.6 °C 7.2 °C 1029.5 hPa SSW 3.2 km/h 8.0 km/h 85% 0.0 mm CLR
01:55 9.6 °C 7.2 °C 1029.6 hPa SSW 3.2 km/h 8.0 km/h 85% 0.0 mm CLR
02:00 9.6 °C 7.2 °C 1029.6 hPa SW 3.2 km/h 8.0 km/h 85% 0.0 mm CLR
02:05 9.6 °C 7.2 °C 1029.6 hPa SW 3.2 km/h 6.4 km/h 85% 0.0 mm CLR
02:10 9.5 °C 6.9 °C 1029.6 hPa WSW 3.2 km/h 4.8 km/h 84% 0.0 mm CLR
02:15 9.4 °C 6.8 °C 1029.6 hPa Calm     84% 0.0 mm CLR
02:20 9.4 °C 6.8 °C 1029.6 hPa Calm   8.0 km/h 84% 0.0 mm CLR
02:25 9.3 °C 6.9 °C 1029.5 hPa SW 3.2 km/h 8.0 km/h 85% 0.0 mm CLR
02:30 9.3 °C 6.7 °C 1029.5 hPa SSW 3.2 km/h 9.7 km/h 84% 0.0 mm CLR
02:35 9.2 °C 6.6 °C 1029.5 hPa South 4.8 km/h 9.7 km/h 84% 0.0 mm CLR
02:40 9.1 °C 6.7 °C 1029.5 hPa South 4.8 km/h 9.7 km/h 85% 0.0 mm CLR
02:45 8.9 °C 6.6 °C 1029.5 hPa South 4.8 km/h 9.7 km/h 85% 0.0 mm CLR
02:50 8.9 °C 6.7 °C 1029.5 hPa SSW 8.0 km/h 9.7 km/h 86% 0.0 mm CLR
02:55 8.9 °C 6.7 °C 1029.5 hPa SSW 8.0 km/h 9.7 km/h 86% 0.0 mm CLR
03:00 8.8 °C 6.6 °C 1029.5 hPa SSW 8.0 km/h 11.3 km/h 86% 0.0 mm CLR
03:05 8.8 °C 6.6 °C 1029.5 hPa SSW 8.0 km/h 11.3 km/h 86% 0.0 mm CLR
03:10 8.8 °C 6.6 °C 1029.4 hPa SSW 8.0 km/h 11.3 km/h 86% 0.0 mm CLR
03:15 8.7 °C 6.5 °C 1029.4 hPa SSW 8.0 km/h 11.3 km/h 86% 0.0 mm CLR
03:20 8.7 °C 6.5 °C 1029.4 hPa SW 8.0 km/h 9.7 km/h 86% 0.0 mm CLR
03:25 8.7 °C 6.5 °C 1029.5 hPa SW 4.8 km/h 9.7 km/h 86% 0.0 mm CLR
03:30 8.6 °C 6.4 °C 1029.5 hPa SW 4.8 km/h 9.7 km/h 86% 0.0 mm CLR
03:35 8.6 °C 6.2 °C 1029.5 hPa SW 4.8 km/h 9.7 km/h 85% 0.0 mm CLR
03:40 8.5 °C 6.1 °C 1029.3 hPa WSW 4.8 km/h 9.7 km/h 85% 0.0 mm CLR
03:45 8.4 °C 6.0 °C 1029.3 hPa SW 4.8 km/h 8.0 km/h 85% 0.0 mm CLR
03:50 8.4 °C 6.0 °C 1029.3 hPa SW 3.2 km/h 8.0 km/h 85% 0.0 mm CLR
03:55 8.4 °C 6.0 °C 1029.2 hPa SW 3.2 km/h 8.0 km/h 85% 0.0 mm CLR
04:00 8.3 °C 5.9 °C 1029.2 hPa SW 3.2 km/h 8.0 km/h 85% 0.0 mm CLR
04:05 8.3 °C 5.9 °C 1029.2 hPa WSW 4.8 km/h 9.7 km/h 85% 0.0 mm CLR
04:10 8.2 °C 5.8 °C 1029.2 hPa SW 4.8 km/h 8.0 km/h 85% 0.0 mm CLR
04:15 8.2 °C 5.8 °C 1029.2 hPa SW 4.8 km/h 8.0 km/h 85% 0.0 mm CLR
04:20 8.2 °C 5.8 °C 1029.2 hPa SSW 3.2 km/h 6.4 km/h 85% 0.0 mm CLR
04:25 8.2 °C 5.8 °C 1029.3 hPa SSW 3.2 km/h 6.4 km/h 85% 0.0 mm CLR
04:30 8.1 °C 5.9 °C 1029.3 hPa SSW 3.2 km/h 8.0 km/h 86% 0.0 mm CLR
04:35 8.1 °C 5.9 °C 1029.3 hPa SW 4.8 km/h 11.3 km/h 86% 0.0 mm CLR
04:40 8.1 °C 5.7 °C 1029.3 hPa SW 4.8 km/h 11.3 km/h 85% 0.0 mm CLR
04:45 8.1 °C 5.6 °C 1029.3 hPa WSW 4.8 km/h 11.3 km/h 84% 0.0 mm CLR
04:50 8.1 °C 5.4 °C 1029.3 hPa WSW 8.0 km/h 9.7 km/h 83% 0.0 mm CLR
04:55 8.1 °C 5.2 °C 1029.4 hPa WSW 4.8 km/h 9.7 km/h 82% 0.0 mm CLR
05:00 8.1 °C 5.1 °C 1029.4 hPa WSW 4.8 km/h 8.0 km/h 81% 0.0 mm CLR
05:05 8.1 °C 5.1 °C 1029.4 hPa SW 4.8 km/h 8.0 km/h 81% 0.0 mm CLR
05:10 8.1 °C 5.1 °C 1029.4 hPa SW 4.8 km/h 8.0 km/h 81% 0.0 mm CLR
05:15 8.1 °C 4.8 °C 1029.4 hPa SW 3.2 km/h 8.0 km/h 80% 0.0 mm CLR
05:20 7.9 °C 4.8 °C 1029.4 hPa South 3.2 km/h 8.0 km/h 81% 0.0 mm CLR
05:25 7.6 °C 4.7 °C 1029.5 hPa SE 3.2 km/h 8.0 km/h 82% 0.0 mm CLR
05:30 7.4 °C 4.7 °C 1029.5 hPa SE 3.2 km/h 6.4 km/h 83% 0.0 mm CLR
05:35 7.2 °C 4.7 °C 1029.5 hPa SE 3.2 km/h 6.4 km/h 84% 0.0 mm CLR
05:40 7.1 °C 4.6 °C 1029.6 hPa SE 3.2 km/h 6.4 km/h 84% 0.0 mm CLR
05:45 6.9 °C 4.6 °C 1029.6 hPa SE 3.2 km/h 8.0 km/h 85% 0.0 mm CLR
05:50 6.7 °C 4.3 °C 1029.6 hPa SE 3.2 km/h 8.0 km/h 85% 0.0 mm CLR
05:55 6.6 °C 4.4 °C 1029.6 hPa SE 4.8 km/h 8.0 km/h 86% 0.0 mm CLR
06:00 6.6 °C 4.4 °C 1029.6 hPa SE 4.8 km/h 6.4 km/h 86% 0.0 mm CLR
06:05 6.5 °C 4.5 °C 1029.6 hPa SSE 3.2 km/h 8.0 km/h 87% 0.0 mm CLR
06:10 6.4 °C 4.4 °C 1029.7 hPa South 3.2 km/h 8.0 km/h 87% 0.0 mm CLR
06:15 6.6 °C 4.6 °C 1029.7 hPa South 3.2 km/h 8.0 km/h 87% 0.0 mm CLR
06:20 6.6 °C 4.6 °C 1029.7 hPa South 3.2 km/h 4.8 km/h 87% 0.0 mm CLR
06:25 6.6 °C 4.6 °C 1029.8 hPa South 3.2 km/h 6.4 km/h 87% 0.0 mm CLR
06:30 6.7 °C 4.7 °C 1029.8 hPa SSW 3.2 km/h 8.0 km/h 87% 0.0 mm CLR
06:35 6.8 °C 4.6 °C 1029.8 hPa South 3.2 km/h 8.0 km/h 86% 0.0 mm CLR
06:40 6.8 °C 4.6 °C 1029.9 hPa South 3.2 km/h 11.3 km/h 86% 0.0 mm CLR
06:45 6.8 °C 4.6 °C 1029.9 hPa South 8.0 km/h 11.3 km/h 86% 0.0 mm CLR
06:50 6.7 °C 4.5 °C 1029.9 hPa South 8.0 km/h 9.7 km/h 86% 0.0 mm CLR
06:55 6.7 °C 4.5 °C 1029.8 hPa South 8.0 km/h 9.7 km/h 86% 0.0 mm CLR
07:00 6.6 °C 4.4 °C 1029.8 hPa South 8.0 km/h 9.7 km/h 86% 0.0 mm CLR
07:05 6.6 °C 4.4 °C 1029.8 hPa SSE 4.8 km/h 9.7 km/h 86% 0.0 mm CLR
07:10 6.5 °C 4.3 °C 1029.9 hPa South 4.8 km/h 8.0 km/h 86% 0.0 mm CLR
07:15 6.4 °C 4.2 °C 1029.9 hPa South 4.8 km/h 8.0 km/h 86% 0.0 mm CLR
07:20 6.5 °C 4.5 °C 1029.9 hPa SSW 3.2 km/h 8.0 km/h 87% 0.0 mm CLR
07:25 6.6 °C 4.6 °C 1030.2 hPa SSW 4.8 km/h 8.0 km/h 87% 0.0 mm CLR
07:30 6.6 °C 4.4 °C 1030.2 hPa SSE 4.8 km/h 9.7 km/h 86% 0.0 mm CLR
07:35 6.6 °C 4.3 °C 1030.2 hPa SSE 4.8 km/h 11.3 km/h 85% 0.0 mm CLR
07:40 6.5 °C 4.2 °C 1030.4 hPa South 8.0 km/h 11.3 km/h 85% 0.0 mm CLR
07:45 6.4 °C 4.1 °C 1030.4 hPa South 8.0 km/h 11.3 km/h 85% 0.0 mm CLR
07:50 6.3 °C 3.9 °C 1030.4 hPa SSE 8.0 km/h 9.7 km/h 85% 0.0 mm CLR
07:55 6.1 °C 3.8 °C 1030.4 hPa SSE 8.0 km/h 11.3 km/h 85% 0.0 mm CLR
08:00 6.1 °C 3.9 °C 1030.4 hPa South 8.0 km/h 11.3 km/h 86% 0.0 mm CLR
08:05 6.1 °C 3.9 °C 1030.4 hPa South 8.0 km/h 9.7 km/h 86% 0.0 mm CLR
08:10 6.1 °C 4.1 °C 1030.4 hPa South 8.0 km/h 9.7 km/h 87% 0.0 mm CLR
Murcia-Puente Tocinos, España
Compliments of Weather Underground - 1.75 mb

La estación de MeteoMurcia.com, publica sus datos en los siguientes proyectos:

Weather Underground PWS IMURCIAP2 Meteoclimatic www.awekas.at

W3Counter
Web Analytics